Flag for Poland Weather past 2 weeks in Białystok, Poland

Now
47 °F

Partly sunny.


Feels Like: 45 °F
Forecast: 39 / 45 °F
Wind: 6 mph from West

Location: Bialystok

Current Time: Mar 30, 2015 at 1:44:25 PM

Latest Report: Mar 30, 2015 at 1:00 PM


Visibility: 22 mi

Pressure: 29.15 "Hg

Humidity: 70%

Dew point: 38 °F

Location of BiałystokLocation

Historic Weather in Białystok — Graph

°F

Białystok temperature yesterday

Maximum temperature yesterday: 49 °F (at 4:00 PM)
Minimum temperature yesterday: 39 °F (at 3:00 AM)
Average temperature yesterday: 43 °F

Past Weeks' High & Low Weather Summary

 TemperatureHumidityPressure
High67 °F (Mar 27, 2:00 PM)96% (Mar 20, 7:00 AM)30.85 "Hg (Mar 20, 7:00 AM)
Low16 °F (Mar 23, 1:00 AM)24% (Mar 16, 3:00 PM)29.12 "Hg (Mar 30, 9:00 AM)
Average41 °F65%30.15 "Hg
* Reported Mar 15 11:00 AM — Mar 30 12:00 Noon, Białystok, Weather by CustomWeather, © 2015

Note: Actual official high and low records may vary slightly from our data, if they occured in-between our weather recording intervals... More about our weather records

Advertising

Białystok weather history for previous 24 hours

 ConditionsComfort  
Time TempWeatherWind HumidityBarometerVisibility
12:00 PM
Mon, Mar 30
47 °FPartly sunny.6 mph74%29.15 "Hg28 mi
11:00 AM44 °FLow clouds.6 mph89%29.15 "Hg28 mi
10:00 AM46 °FLight rain. Low clouds.5 mph95%29.12 "Hg4 mi
9:00 AM44 °FLight rain. Low clouds.6 mph96%29.12 "Hg3 mi
8:00 AM44 °FLight rain. Low clouds.6 mph96%29.15 "Hg2 mi
7:00 AM42 °FLight rain. Low clouds.6 mph96%29.18 "Hg2 mi
6:00 AM42 °FLight rain. Low clouds.6 mph96%29.21 "Hg2 mi
5:00 AM41 °FLight rain. Low clouds.6 mph94%29.23 "Hg2 mi
4:00 AM41 °FLight rain. Low clouds.5 mph94%29.29 "Hg3 mi
3:00 AM41 °FLight rain. Low clouds.6 mph92%29.32 "Hg4 mi
2:00 AM41 °FLight rain. Overcast.6 mph91%29.38 "Hg5 mi
1:00 AM41 °FLight rain. Low clouds.6 mph90%29.41 "Hg6 mi
12:00 AM41 °FLight rain. Low clouds.5 mph90%29.44 "Hg7 mi
10:00 PM
Sun, Mar 29
41 °FLow clouds.5 mph90%29.53 "Hg12 mi
9:00 PM42 °FLight rain. Low clouds.5 mph89%29.56 "Hg11 mi
8:00 PM42 °FLow clouds.5 mph88%29.58 "Hg19 mi
7:00 PM44 °FPassing clouds.5 mph84%29.58 "Hg18 mi
6:00 PM46 °FOvercast.5 mph78%29.59 "Hg19 mi
5:00 PM49 °FPartly sunny.3 mph66%29.60 "Hg22 mi
4:00 PM49 °FOvercast.3 mph63%29.62 "Hg19 mi
3:00 PM49 °FOvercast.3 mph63%29.65 "Hg28 mi
2:00 PM48 °FPartly sunny.3 mph62%29.68 "Hg19 mi
1:00 PM47 °FPartly sunny.2 mph67%29.70 "Hg19 mi
Weather by CustomWeather, © 2015

See weather overviewHow to use our weather pages